THEMIS D

Last updated on Sun Oct 19 2025 00:02:39 GMT+0000 (Coordinated Universal Time)

1 30797U 07004D 25291.26318927 .00000025 00000+0 00000+0 0 9999 2 30797 4.2734 90.6870 8397914 194.1750 152.7421 0.87836197 38952
UTC large
Height (km)
Speed (km/s)
/
Latitude / Longitude
Inclination (degrees)
Orbital Period (minutes)
Azimuth
Elevation
Range (km)
Doppler Factor

Next 0 passes for location: London (51.5072 / 0.1276)

Sorry there are no passes over London.